Location: Dappach
(48.9767°N, 9.6998°E)
Time: 22:37:21
(UTC+00:00)

CZ-2C R/B - Pass Details

Date: 23 May 2024
Orbit: 703 x 904 km, 98.2° (Epoch: 14 June)

Event Time Altitude Azimuth Distance (km) Brightness Sun altitude
Rises 01:35:06 0° 14° (NNE) 3,538 7.9 -14.0°
Reaches altitude 10° 01:37:33 10° 17° (NNE) 2,597 7.0 -13.8°
Maximum altitude 01:43:23 76° 103° (ESE) 930 3.5 -13.2°
Enters shadow 01:48:27 14° 189° (S) 2,295 4.9 -12.7°
